Time,TemperatureF,DewpointF,PressureIn,WindDirection,WindDirectionDegrees,WindSpeedMPH,WindSpeedGustMPH,Humidity,HourlyPrecipIn,Conditions,Clouds,dailyrainin,SoftwareType,DateUTC
2013-03-07 00:05:00,64.2,61.0,0.00,ESE,122,4.0,8.0,90,0.00,,,0.00,weatherlink.com 1.10,2013-03-07 06:05:00,
2013-03-07 00:20:00,64.3,61.0,0.00,SE,138,4.0,9.0,89,0.00,,,0.00,weatherlink.com 1.10,2013-03-07 06:20:00,
2013-03-07 00:35:00,64.2,61.0,0.00,ESE,122,3.0,9.0,89,0.00,,,0.00,weatherlink.com 1.10,2013-03-07 06:35:00,
2013-03-07 00:50:00,64.0,61.0,0.00,ESE,102,2.0,8.0,89,0.00,,,0.00,weatherlink.com 1.10,2013-03-07 06:50:00,
2013-03-07 01:05:00,63.9,61.0,0.00,East,98,3.0,8.0,89,0.00,,,0.00,weatherlink.com 1.10,2013-03-07 07:05:00,
2013-03-07 01:20:00,64.0,61.0,0.00,ESE,106,4.0,7.0,89,0.00,,,0.00,weatherlink.com 1.10,2013-03-07 07:20:00,
2013-03-07 01:35:00,62.7,60.0,0.00,ENE,76,2.0,3.0,89,0.00,,,0.00,weatherlink.com 1.10,2013-03-07 07:35:00,
2013-03-07 01:50:00,62.1,60.0,0.00,ESE,118,3.0,7.0,91,0.00,,,0.00,weatherlink.com 1.10,2013-03-07 07:50:00,
2013-03-07 02:05:00,62.2,60.0,0.00,SE,138,5.0,9.0,91,0.00,,,0.00,weatherlink.com 1.10,2013-03-07 08:05:00,
2013-03-07 02:20:00,62.5,60.0,0.00,East,101,7.0,9.0,91,0.00,,,0.00,weatherlink.com 1.10,2013-03-07 08:20:00,
2013-03-07 02:36:00,62.8,60.0,0.00,ESE,116,3.0,9.0,91,0.00,,,0.00,weatherlink.com 1.10,2013-03-07 08:36:00,
2013-03-07 02:51:00,62.4,60.0,0.00,ESE,104,7.0,7.0,91,0.00,,,0.00,weatherlink.com 1.10,2013-03-07 08:51:00,
2013-03-07 03:06:00,61.8,59.0,0.00,East,94,7.0,8.0,91,0.00,,,0.00,weatherlink.com 1.10,2013-03-07 09:06:00,
2013-03-07 03:21:00,62.0,60.0,0.00,East,90,5.0,7.0,92,0.00,,,0.00,weatherlink.com 1.10,2013-03-07 09:21:00,
2013-03-07 03:36:00,62.1,60.0,0.00,ESE,119,4.0,8.0,92,0.00,,,0.00,weatherlink.com 1.10,2013-03-07 09:36:00,
2013-03-07 03:51:00,62.3,60.0,0.00,East,100,7.0,7.0,92,0.00,,,0.00,weatherlink.com 1.10,2013-03-07 09:51:00,
2013-03-07 04:06:00,61.6,59.0,0.00,ESE,107,4.0,8.0,92,0.00,,,0.00,weatherlink.com 1.10,2013-03-07 10:06:00,
2013-03-07 04:21:00,61.2,59.0,0.00,East,101,5.0,8.0,93,0.00,,,0.00,weatherlink.com 1.10,2013-03-07 10:21:00,
2013-03-07 04:36:00,61.2,60.0,0.00,East,101,7.0,8.0,94,0.00,,,0.00,weatherlink.com 1.10,2013-03-07 10:36:00,
2013-03-07 04:51:00,61.2,60.0,0.00,ESE,116,3.0,7.0,94,0.00,,,0.00,weatherlink.com 1.10,2013-03-07 10:51:00,
2013-03-07 05:06:00,61.0,59.0,0.00,East,101,6.0,8.0,94,0.00,,,0.00,weatherlink.com 1.10,2013-03-07 11:06:00,
2013-03-07 05:21:00,60.6,59.0,0.00,East,88,7.0,7.0,94,0.00,,,0.00,weatherlink.com 1.10,2013-03-07 11:21:00,
2013-03-07 05:36:00,60.9,59.0,0.00,East,99,6.0,8.0,94,0.00,,,0.00,weatherlink.com 1.10,2013-03-07 11:36:00,
2013-03-07 05:51:00,61.1,60.0,0.00,East,87,6.0,9.0,95,0.00,,,0.00,weatherlink.com 1.10,2013-03-07 11:51:00,
2013-03-07 06:07:00,61.1,60.0,0.00,ENE,72,7.0,9.0,95,0.00,,,0.00,weatherlink.com 1.10,2013-03-07 12:07:00,
2013-03-07 06:22:00,61.6,60.0,0.00,ESE,117,4.0,9.0,95,0.00,,,0.00,weatherlink.com 1.10,2013-03-07 12:22:00,
2013-03-07 06:37:00,62.5,61.0,0.00,SE,126,5.0,10.0,95,0.00,,,0.00,weatherlink.com 1.10,2013-03-07 12:37:00,
2013-03-07 06:52:00,63.4,62.0,0.00,ESE,107,7.0,9.0,94,0.00,,,0.00,weatherlink.com 1.10,2013-03-07 12:52:00,
2013-03-07 07:07:00,64.6,63.0,0.00,SE,129,6.0,10.0,93,0.00,,,0.00,weatherlink.com 1.10,2013-03-07 13:07:00,
2013-03-07 07:22:00,65.8,63.0,0.00,SE,132,6.0,10.0,91,0.00,,,0.00,weatherlink.com 1.10,2013-03-07 13:22:00,
2013-03-07 07:37:00,67.1,64.0,0.00,SE,142,5.0,10.0,89,0.00,,,0.00,weatherlink.com 1.10,2013-03-07 13:37:00,
2013-03-07 07:52:00,69.1,65.0,0.00,SSE,147,6.0,12.0,86,0.00,,,0.00,weatherlink.com 1.10,2013-03-07 13:52:00,
2013-03-07 08:07:00,71.9,66.0,0.00,SSE,149,7.0,12.0,82,0.00,,,0.00,weatherlink.com 1.10,2013-03-07 14:07:00,
2013-03-07 08:22:00,74.3,66.0,0.00,SSE,167,10.0,11.0,76,0.00,,,0.00,weatherlink.com 1.10,2013-03-07 14:22:00,
2013-03-07 08:37:00,75.4,65.0,0.00,SE,146,7.0,14.0,71,0.00,,,0.00,weatherlink.com 1.10,2013-03-07 14:37:00,
2013-03-07 09:07:00,77.0,64.0,0.00,SSE,156,13.0,15.0,65,0.00,,,0.00,weatherlink.com 1.10,2013-03-07 15:07:00,
2013-03-07 09:23:00,77.7,66.0,0.00,South,173,9.0,13.0,67,0.00,,,0.00,weatherlink.com 1.10,2013-03-07 15:23:00,
2013-03-07 09:38:00,77.5,64.0,0.00,South,179,10.0,15.0,64,0.00,,,0.00,weatherlink.com 1.10,2013-03-07 15:38:00,
2013-03-07 10:08:00,76.6,66.0,0.00,SW,217,18.0,18.0,70,0.00,,,0.00,weatherlink.com 1.10,2013-03-07 16:08:00,
2013-03-07 10:23:00,76.6,66.0,0.00,SW,215,16.0,17.0,69,0.00,,,0.00,weatherlink.com 1.10,2013-03-07 16:23:00,
2013-03-07 10:38:00,76.6,65.0,0.00,SW,219,17.0,17.0,67,0.00,,,0.00,weatherlink.com 1.10,2013-03-07 16:38:00,
2013-03-07 10:53:00,76.7,66.0,0.00,SW,218,17.0,17.0,69,0.00,,,0.00,weatherlink.com 1.10,2013-03-07 16:53:00,
2013-03-07 11:08:00,77.2,65.0,0.00,SSW,192,14.0,19.0,67,0.00,,,0.00,weatherlink.com 1.10,2013-03-07 17:08:00,
2013-03-07 11:38:00,76.8,66.0,0.00,SSW,210,17.0,21.0,69,0.00,,,0.00,weatherlink.com 1.10,2013-03-07 17:38:00,
2013-03-07 11:53:00,76.4,66.0,0.00,SSW,196,13.0,19.0,69,0.00,,,0.00,weatherlink.com 1.10,2013-03-07 17:53:00,
2013-03-07 12:08:00,76.4,66.0,0.00,SW,218,16.0,18.0,71,0.00,,,0.00,weatherlink.com 1.10,2013-03-07 18:08:00,
2013-03-07 12:23:00,76.3,66.0,0.00,SW,221,19.0,20.0,70,0.00,,,0.00,weatherlink.com 1.10,2013-03-07 18:23:00,
2013-03-07 12:39:00,76.0,66.0,0.00,SSW,195,15.0,19.0,71,0.00,,,0.00,weatherlink.com 1.10,2013-03-07 18:39:00,
2013-03-07 12:54:00,76.0,66.0,0.00,SW,214,17.0,19.0,71,0.00,,,0.00,weatherlink.com 1.10,2013-03-07 18:54:00,
2013-03-07 13:09:00,75.9,67.0,0.00,SSW,199,14.0,20.0,73,0.00,,,0.00,weatherlink.com 1.10,2013-03-07 19:09:00,
2013-03-07 13:24:00,75.8,65.0,0.00,SW,218,17.0,18.0,70,0.00,,,0.00,weatherlink.com 1.10,2013-03-07 19:24:00,
2013-03-07 13:39:00,75.6,66.0,0.00,SW,215,15.0,18.0,71,0.00,,,0.00,weatherlink.com 1.10,2013-03-07 19:39:00,
2013-03-07 13:54:00,75.5,65.0,0.00,SW,218,18.0,18.0,70,0.00,,,0.00,weatherlink.com 1.10,2013-03-07 19:54:00,
2013-03-07 14:09:00,75.4,65.0,0.00,SW,221,17.0,18.0,71,0.00,,,0.00,weatherlink.com 1.10,2013-03-07 20:09:00,
2013-03-07 14:24:00,75.6,65.0,0.00,SSW,213,15.0,17.0,69,0.00,,,0.00,weatherlink.com 1.10,2013-03-07 20:24:00,
2013-03-07 14:39:00,75.5,65.0,0.00,SW,218,16.0,17.0,70,0.00,,,0.00,weatherlink.com 1.10,2013-03-07 20:39:00,
2013-03-07 14:54:00,75.4,65.0,0.00,SSW,211,16.0,18.0,71,0.00,,,0.00,weatherlink.com 1.10,2013-03-07 20:54:00,
2013-03-07 15:09:00,75.4,65.0,0.00,SSW,198,10.0,17.0,69,0.00,,,0.00,weatherlink.com 1.10,2013-03-07 21:09:00,
2013-03-07 15:24:00,75.4,65.0,0.00,SW,215,17.0,17.0,70,0.00,,,0.00,weatherlink.com 1.10,2013-03-07 21:24:00,
2013-03-07 15:39:00,75.4,65.0,0.00,SW,218,17.0,18.0,71,0.00,,,0.00,weatherlink.com 1.10,2013-03-07 21:39:00,
2013-03-07 15:55:00,75.5,65.0,0.00,South,188,9.0,17.0,70,0.00,,,0.00,weatherlink.com 1.10,2013-03-07 21:55:00,
2013-03-07 16:10:00,75.4,65.0,0.00,SSW,207,14.0,18.0,69,0.00,,,0.00,weatherlink.com 1.10,2013-03-07 22:10:00,
2013-03-07 16:25:00,75.3,65.0,0.00,SSW,192,11.0,17.0,70,0.00,,,0.00,weatherlink.com 1.10,2013-03-07 22:25:00,
2013-03-07 16:40:00,75.4,64.0,0.00,SSW,209,10.0,16.0,67,0.00,,,0.00,weatherlink.com 1.10,2013-03-07 22:40:00,
2013-03-07 16:55:00,75.2,65.0,0.00,South,184,12.0,16.0,71,0.00,,,0.00,weatherlink.com 1.10,2013-03-07 22:55:00,
2013-03-07 17:10:00,75.3,66.0,0.00,SSW,210,10.0,17.0,72,0.00,,,0.00,weatherlink.com 1.10,2013-03-07 23:10:00,
2013-03-07 17:25:00,74.9,64.0,0.00,South,179,11.0,15.0,69,0.00,,,0.00,weatherlink.com 1.10,2013-03-07 23:25:00,
2013-03-07 17:40:00,74.4,64.0,0.00,South,169,7.0,13.0,69,0.00,,,0.00,weatherlink.com 1.10,2013-03-07 23:40:00,
2013-03-07 17:55:00,73.8,63.0,0.00,South,171,7.0,13.0,69,0.00,,,0.00,weatherlink.com 1.10,2013-03-07 23:55:00,
2013-03-07 18:10:00,73.4,63.0,0.00,South,175,7.0,11.0,71,0.00,,,0.00,weatherlink.com 1.10,2013-03-08 00:10:00,
2013-03-07 18:25:00,73.3,64.0,0.00,South,188,8.0,13.0,72,0.00,,,0.00,weatherlink.com 1.10,2013-03-08 00:25:00,
2013-03-07 18:40:00,72.7,63.0,0.00,South,169,7.0,10.0,72,0.00,,,0.00,weatherlink.com 1.10,2013-03-08 00:40:00,
2013-03-07 18:55:00,72.6,63.0,0.00,SE,144,4.0,9.0,72,0.00,,,0.00,weatherlink.com 1.10,2013-03-08 00:55:00,
2013-03-07 19:10:00,71.6,63.0,0.00,SE,138,4.0,6.0,74,0.00,,,0.00,weatherlink.com 1.10,2013-03-08 01:10:00,
2013-03-07 19:25:00,70.7,63.0,0.00,SE,140,4.0,7.0,76,0.00,,,0.00,weatherlink.com 1.10,2013-03-08 01:25:00,
2013-03-07 19:40:00,70.0,63.0,0.00,SE,142,5.0,8.0,77,0.00,,,0.00,weatherlink.com 1.10,2013-03-08 01:40:00,
2013-03-07 19:56:00,69.4,62.0,0.00,SE,131,4.0,10.0,78,0.00,,,0.00,weatherlink.com 1.10,2013-03-08 01:56:00,
2013-03-07 20:11:00,68.8,62.0,0.00,SE,135,7.0,8.0,79,0.00,,,0.00,weatherlink.com 1.10,2013-03-08 02:11:00,
2013-03-07 20:26:00,68.5,62.0,0.00,SE,134,6.0,10.0,79,0.00,,,0.00,weatherlink.com 1.10,2013-03-08 02:26:00,
2013-03-07 20:41:00,68.3,62.0,0.00,ESE,122,2.0,6.0,80,0.00,,,0.00,weatherlink.com 1.10,2013-03-08 02:41:00,
2013-03-07 20:56:00,67.9,62.0,0.00,SE,136,6.0,9.0,80,0.00,,,0.00,weatherlink.com 1.10,2013-03-08 02:56:00,
2013-03-07 21:11:00,67.3,61.0,0.00,SE,136,6.0,10.0,81,0.00,,,0.00,weatherlink.com 1.10,2013-03-08 03:11:00,
2013-03-07 21:26:00,66.7,61.0,0.00,SE,127,6.0,9.0,82,0.00,,,0.00,weatherlink.com 1.10,2013-03-08 03:26:00,
2013-03-07 21:41:00,66.4,61.0,0.00,SE,132,6.0,9.0,82,0.00,,,0.00,weatherlink.com 1.10,2013-03-08 03:41:00,
2013-03-07 21:56:00,66.2,61.0,0.00,SE,130,5.0,8.0,83,0.00,,,0.00,weatherlink.com 1.10,2013-03-08 03:56:00,
2013-03-07 22:26:00,65.7,60.0,0.00,SE,128,6.0,9.0,83,0.00,,,0.00,weatherlink.com 1.10,2013-03-08 04:26:00,
2013-03-07 22:41:00,65.5,61.0,0.00,SE,136,7.0,9.0,84,0.00,,,0.00,weatherlink.com 1.10,2013-03-08 04:41:00,
2013-03-07 22:56:00,65.2,60.0,0.00,SE,126,6.0,11.0,84,0.00,,,0.00,weatherlink.com 1.10,2013-03-08 04:56:00,
2013-03-07 23:11:00,65.2,60.0,0.00,SE,138,4.0,10.0,83,0.00,,,0.00,weatherlink.com 1.10,2013-03-08 05:11:00,
2013-03-07 23:26:00,64.4,60.0,0.00,ESE,118,4.0,9.0,84,0.00,,,0.00,weatherlink.com 1.10,2013-03-08 05:26:00,
2013-03-07 23:41:00,64.1,60.0,0.00,ESE,121,4.0,8.0,85,0.00,,,0.00,weatherlink.com 1.10,2013-03-08 05:41:00,
2013-03-07 23:56:00,64.2,59.0,0.00,SE,138,6.0,10.0,84,0.00,,,0.00,weatherlink.com 1.10,2013-03-08 05:56:00,